Tracking 19706 objects as of 15-Jun-2019
HD Live streaming from Space Station
objects crossing your sky now

THORAD AGENA D DEB

Track THORAD AGENA D DEB now!
10-day predictions


NORAD ID: 5958
Int'l Code: 1970-025MP
Perigee: 998.8 km
Apogee: 1,076.5 km
Inclination: 99.5 °
Period: 105.8 minutes
Semi major axis: 7408 km
RCS: 0.0442 m2 (small)
Launch date: April 8, 1970
Source: United States (US)
Launch site: AIR FORCE WESTERN TEST RANGE (AFWTR)

Note: This is SATELLITE DEBRIS
aabbcc
Your satellite tracking list
Your tracking list is empty




NASA's NSSDC Master Catalog

Two Line Element Set (TLE):
1  5958U 70025MP  19165.76256052 +.00000120 +00000-0 +21181-3 0  9995
2  5958 099.4919 097.2155 0052462 159.0061 269.4802 13.61430103426656
Source of the keplerian elements: AFSPC